Location: B�hl
(48.6968°N, 8.1352°E)
Time: 02:06:27
(UTC+00:00)

Cosmos 1000 Rocket - Pass Details

Date: 08 March 2021
Orbit: 954 x 991 km, 82.9° (Epoch: 16 April)

Event Time Altitude Azimuth Distance (km) Brightness Sun altitude
Rises 19:12:28 0° 352° (N) 3,698 7.8 -18.9°
Reaches altitude 10° 19:15:01 10° 355° (N) 2,750 7.1 -19.3°
Maximum altitude 19:21:18 66° 78° (ENE) 1,076 4.5 -20.3°
Enters shadow 19:25:18 24° 155° (SSE) 1,942 5.7 -20.9°
